#timestamp,LO_Frequency,Hit 
1502776815.4,286046986.2,N
1502776835.2,286046987.9,N
1502776855.0,286046987.4,N
1502776855.9,286046987.4,N
1502776875.8,286046991.4,N
1502776895.6,286046992.0,N
1502776915.4,286046994.1,N
1502776935.2,286046994.5,N
1502776955.1,286046994.4,N
1502776956.0,286046994.4,N
1502776975.8,286046992.4,N
1502776995.6,286046993.8,N
1502777015.5,286046994.0,N
1502777035.3,286046994.6,N
1502777055.1,286046992.8,N
1502777075.9,286046992.3,N
1502777095.7,286046991.5,N
1502777115.5,286046989.0,N
1502777135.4,286046990.5,N
1502777155.2,286046986.9,N
1502777175.0,286046985.3,N
1502777175.9,286046985.3,N
1502777195.7,286046988.4,N
1502777215.6,286046987.1,N
1502777235.4,286046988.2,N
1502777255.2,286046989.2,N
1502777275.1,286046987.4,N
1502777276.0,286046987.4,N
1502777295.8,286046988.4,N
1502777315.6,286046986.5,N
1502777335.5,286046985.7,N
1502777355.3,286046989.5,N
1502777375.1,286046989.9,N
1502777395.9,286046987.3,N
1502777415.7,286046989.7,N
1502777435.5,286046987.5,N
1502777455.3,286046990.5,N
1502777475.2,286046988.7,N
1502777495.9,286046989.1,N
1502777515.7,286046991.5,N
1502777535.6,286046992.5,N
1502777555.4,286046993.2,N
1502777575.2,286046990.7,N
1502777595.1,286046990.5,N
1502777596.0,286046990.5,N
1502777615.8,286046991.1,N
1502777635.6,286046990.4,N
1502777655.4,286046990.3,N
1502777675.3,286046989.4,N
1502777695.1,286046990.2,N
1502777715.8,286046992.4,N
1502777735.7,286046996.4,N
1502777755.5,286046992.6,N
1502777775.3,286046989.5,N
1502777795.2,286046988.1,N
1502777815.9,286046989.1,N
1502777835.7,286046990.9,N
1502777855.6,286046989.6,N
1502777875.4,286046989.2,N
1502777895.2,286046987.3,N
1502777915.0,286046989.1,N
1502777915.9,286046989.1,N
1502777935.8,286046989.2,N
1502777955.6,286046989.0,N
1502777975.4,286046990.8,N
1502777995.3,286046990.4,N
1502778015.1,286046988.6,N
1502778035.8,286046989.7,N
1502778055.7,286046989.5,N
1502778075.5,286046987.6,Y
1502778095.3,286046996.2,N
1502778115.2,286046993.8,N
1502778135.9,286046995.9,N
1502778155.7,286047000.3,N
1502778175.6,286047000.1,N
1502778195.4,286047000.7,N
1502778215.2,286046998.6,N
1502778235.0,286047000.7,N
1502778236.0,286047000.7,N
1502778255.8,286047000.3,N
1502778275.6,286047001.2,N
1502778295.4,286046998.3,N
1502778315.3,286046996.9,N
1502778335.1,286046999.5,N
1502778355.8,286046997.8,N
1502778375.7,286046997.8,N
1502778395.5,286046996.5,N
1502778415.3,286046998.4,N
1502778435.2,286046999.2,N
1502778455.9,286046998.7,N
1502778475.7,286046997.8,N
1502778495.5,286046999.6,N
1502778515.4,286046998.3,N
1502778535.2,286046997.2,N
1502778555.0,286046995.2,N
1502778555.9,286046995.2,N
1502778575.8,286046994.9,N
1502778595.6,286046997.7,N
1502778615.4,286046998.5,N
1502778635.3,286047001.1,N
1502778655.1,286047000.5,N
1502778675.8,286046998.5,N
1502778695.7,286046999.4,N
1502778715.5,286047000.1,N
1502778735.3,286047002.3,N
1502778755.2,286047000.4,N
1502778775.9,286047000.0,N
1502778795.7,286047000.4,N
1502778815.5,286047000.6,N
1502778835.4,286047001.0,N
1502778855.2,286046998.2,N
1502778875.0,286046998.1,N
1502778875.9,286046998.1,N
1502778895.8,286046998.8,N
1502778915.6,286046998.2,N
1502778935.4,286047000.2,N
1502778955.3,286047002.8,N
1502778975.1,286046999.7,N
1502778976.0,286046999.7,N
1502778995.8,286047001.3,N
1502779015.7,286047002.4,N
1502779035.5,286047002.8,N
1502779055.3,286047002.3,N
1502779075.1,286047002.5,N
1502779095.9,286047002.5,N
1502779115.7,286047002.1,N
1502779135.5,286047003.2,N
1502779155.4,286047004.4,N
1502779175.2,286047004.2,N
1502779195.0,286047002.1,N
1502779195.9,286047002.1,N
1502779215.8,286047001.8,N
1502779235.6,286047003.5,N
1502779255.4,286047003.3,N
1502779275.3,286047005.9,N
1502779295.1,286047005.1,N
1502779296.0,286047005.1,N
1502779315.8,286047005.1,N
1502779335.6,286047006.4,N
1502779355.5,286047009.4,N
1502779375.3,286047012.0,N
1502779395.1,286047011.4,N
1502779415.9,286047010.7,N
1502779435.7,286047007.4,N
1502779455.5,286047003.1,N
1502779475.4,286047004.1,N
1502779495.2,286047001.8,N
1502779515.0,286047003.9,N
1502779515.9,286047003.9,N
1502779535.8,286047001.6,N
1502779555.6,286047003.1,N
1502779575.4,286047003.1,N
1502779595.2,286047003.8,N
1502779615.1,286047004.3,N
1502779616.0,286047004.3,N
1502779635.8,286047005.5,N
1502779655.6,286047005.6,N
1502779675.5,286047005.9,N
1502779695.3,286047005.8,N
1502779715.1,286047004.5,N
1502779735.9,286047003.4,N
1502779755.7,286047004.4,N
1502779775.5,286047004.2,N
1502779795.4,286047005.3,N
1502779815.2,286047005.3,N
1502779835.0,286047005.2,N
1502779835.9,286047005.2,N
1502779855.7,286047005.0,N
1502779875.6,286047007.1,N
1502779895.4,286047006.6,N
1502779915.2,286047007.5,N
1502779935.1,286047002.2,N
1502779936.0,286047002.2,N
1502779955.8,286046999.2,N
1502779975.6,286046997.3,N
1502779995.5,286046995.4,N
1502780015.3,286046995.8,N
1502780035.1,286046996.8,N
1502780055.9,286047002.4,N
1502780075.7,286047000.1,N
1502780095.5,286047002.3,N
1502780115.4,286047000.9,N
1502780135.2,286046996.9,N
1502780155.0,286046995.6,N
1502780155.9,286046995.6,N
1502780175.7,286046995.5,N
1502780195.6,286046997.1,N
1502780215.4,286046999.0,N
1502780235.2,286047000.1,N
1502780255.1,286047001.1,N
1502780256.0,286047001.1,N
1502780275.8,286047000.2,N
1502780295.6,286047002.1,N
1502780315.5,286047001.4,N
1502780335.3,286047004.9,N
1502780355.1,286047008.5,N
1502780375.9,286047013.9,N
1502780395.7,286047013.7,N
